Home   Weather   Gänserndorf   Past weeks

Flag for Austria Past Weather in Gänserndorf, Lower Austria, Austria — Yesterday and Last 2 Weeks

Now
31 °F

Clear.


Feels Like: 27 °F
Forecast: 21 / 32 °F
Wind: 5 mph from Northwest

Location: Wien / Schwechat-Flughafen

Current Time: Dec 6, 2016 at 7:16:55 pm

Latest Report: Dec 6, 2016 at 6:00 pm


Visibility: 6 mi

Pressure: 30.52 "Hg

Humidity: 78%

Dew Point: 25 °F

Location of GänserndorfLocation

Past Weather in Gänserndorf — Graph

°F

Gänserndorf Temperature Yesterday

Maximum temperature yesterday: 36 °F (at 2:00 pm)
Minimum temperature yesterday: 24 °F (at 8:00 pm)
Average temperature yesterday: 29 °F

High & Low Weather Summary for the Past Weeks

 TemperatureHumidityPressure
High60 °F (Nov 22, 2:00 pm)100% (Nov 24, 6:00 pm)30.56 "Hg (Nov 24, 6:00 pm)
Low19 °F (Dec 4, 4:00 am)37% (Nov 30, 1:00 pm)29.79 "Hg (Dec 2, 7:00 am)
Average38 °F80%30.22 "Hg
* Reported Nov 21 6:00 pm — Dec 6 6:00 pm, Gänserndorf, Weather by CustomWeather, © 2016

Note: Actual official high and low records may vary slightly from our data, if they occured in-between our weather recording intervals... More about our weather records

Advertising

Gänserndorf Weather History for the Previous 24 Hours

Scroll right to see more
 ConditionsComfort  
Time TempWeatherWind HumidityBarometerVisibility
6:00 pm
Tue, Dec 6
31 °FClear.5 mph78%30.52 "Hg6 mi
5:00 pm32 °FPassing clouds.7 mph76%30.50 "Hg8 mi
4:00 pm32 °FPassing clouds.7 mph75%30.48 "Hg8 mi
3:00 pm33 °FPassing clouds.3 mph74%30.47 "Hg7 mi
2:00 pm33 °FPassing clouds.9 mph75%30.47 "Hg6 mi
1:00 pm33 °FOvercast.8 mph80%30.47 "Hg5 mi
12:00 pm33 °FPartly sunny.7 mph85%30.46 "Hg4 mi
11:00 am31 °FLow clouds.3 mph90%30.46 "Hg3 mi
10:00 am29 °FLow clouds.3 mph92%30.45 "Hg2 mi
9:00 am28 °FPartly sunny.5 mph94%30.43 "Hg1 mi
8:00 am26 °FIcy mix. Partly sunny.5 mph95%30.42 "Hg0 mi
7:00 am26 °FPassing clouds.3 mph95%30.41 "Hg3 mi
6:00 am25 °FPassing clouds.N/A94%30.40 "Hg3 mi
5:00 am25 °FPassing clouds.N/A95%30.40 "Hg3 mi
4:00 am27 °FPassing clouds.N/A94%30.40 "Hg3 mi
3:00 am27 °FLow clouds.N/A92%30.41 "Hg3 mi
2:00 am29 °FLow clouds.N/A91%30.41 "Hg4 mi
1:00 am28 °FLow clouds.N/A91%30.41 "Hg3 mi
12:00 am28 °FLow clouds.N/A93%30.41 "Hg3 mi
11:00 pm
Mon, Dec 5
28 °FLow clouds.N/A93%30.42 "Hg3 mi
10:00 pm27 °FLow clouds.N/A94%30.42 "Hg2 mi
9:00 pm25 °FLow clouds.N/A96%30.43 "Hg2 mi
8:00 pm24 °FPassing clouds.N/A96%30.43 "Hg2 mi
7:00 pm25 °FPassing clouds.N/A94%30.43 "Hg3 mi
Weather by CustomWeather, © 2016

See weather overviewHow to use our weather pages